Time,TemperatureF,DewpointF,PressureIn,WindDirection,WindDirectionDegrees,WindSpeedMPH,WindSpeedGustMPH,Humidity,HourlyPrecipIn,Conditions,Clouds,dailyrainin,SoftwareType,DateUTC
2013-05-18 00:02:00,67.2,55.0,30.18,ENE,78,0.0,1.0,65,0.00,,,0.00,WeatherCatV1.15B25,2013-05-18 04:02:00,
2013-05-18 00:07:00,67.2,55.0,30.18,NNW,341,0.0,1.0,65,0.00,,,0.00,WeatherCatV1.15B25,2013-05-18 04:07:00,
2013-05-18 00:12:00,67.1,55.4,30.18,ESE,112,0.0,2.0,66,0.00,,,0.00,WeatherCatV1.15B25,2013-05-18 04:12:00,
2013-05-18 00:17:00,67.1,55.4,30.18,NNW,343,0.0,2.0,66,0.00,,,0.00,WeatherCatV1.15B25,2013-05-18 04:17:00,
2013-05-18 00:22:00,67.0,55.7,30.18,NNW,345,0.0,0.0,67,0.00,,,0.00,WeatherCatV1.15B25,2013-05-18 04:22:00,
2013-05-18 00:27:00,66.9,55.6,30.18,ENE,57,1.0,4.0,67,0.00,,,0.00,WeatherCatV1.15B25,2013-05-18 04:27:00,
2013-05-18 00:32:00,66.8,55.5,30.18,NE,35,0.0,3.0,67,0.00,,,0.00,WeatherCatV1.15B25,2013-05-18 04:32:00,
2013-05-18 00:37:00,66.9,55.6,30.18,ENE,57,1.0,3.0,67,0.00,,,0.00,WeatherCatV1.15B25,2013-05-18 04:37:00,
2013-05-18 00:42:00,66.9,55.6,30.18,ENE,78,0.0,2.0,67,0.00,,,0.00,WeatherCatV1.15B25,2013-05-18 04:42:00,
2013-05-18 00:47:00,66.9,55.6,30.18,NNE,22,1.0,1.0,67,0.00,,,0.00,WeatherCatV1.15B25,2013-05-18 04:47:00,
2013-05-18 00:52:00,66.8,55.5,30.18,ENE,70,0.0,3.0,67,0.00,,,0.00,WeatherCatV1.15B25,2013-05-18 04:52:00,
2013-05-18 00:57:00,66.7,55.4,30.18,NNE,19,2.0,4.0,67,0.00,,,0.00,WeatherCatV1.15B25,2013-05-18 04:57:00,
2013-05-18 01:02:00,66.6,55.7,30.18,WNW,285,1.0,3.0,68,0.00,,,0.00,WeatherCatV1.15B25,2013-05-18 05:02:00,
2013-05-18 01:07:00,66.5,56.0,30.18,ENE,64,3.0,3.0,69,0.00,,,0.00,WeatherCatV1.15B25,2013-05-18 05:07:00,
2013-05-18 01:12:00,66.3,55.8,30.17,North,355,0.0,0.0,69,0.00,,,0.00,WeatherCatV1.15B25,2013-05-18 05:12:00,
2013-05-18 01:17:00,66.2,55.7,30.17,NNE,30,3.0,3.0,69,0.00,,,0.00,WeatherCatV1.15B25,2013-05-18 05:17:00,
2013-05-18 01:22:00,66.1,55.6,30.17,NNE,32,1.0,1.0,69,0.00,,,0.00,WeatherCatV1.15B25,2013-05-18 05:22:00,
2013-05-18 01:27:00,66.0,55.5,30.17,NE,48,0.0,1.0,69,0.00,,,0.00,WeatherCatV1.15B25,2013-05-18 05:27:00,
2013-05-18 01:32:00,65.9,55.4,30.17,ENE,61,2.0,4.0,69,0.00,,,0.00,WeatherCatV1.15B25,2013-05-18 05:32:00,
2013-05-18 01:37:00,65.9,55.8,30.17,NNE,22,0.0,2.0,70,0.00,,,0.00,WeatherCatV1.15B25,2013-05-18 05:37:00,
2013-05-18 01:42:00,65.8,55.7,30.17,NE,37,0.0,1.0,70,0.00,,,0.00,WeatherCatV1.15B25,2013-05-18 05:42:00,
2013-05-18 01:47:00,65.8,55.7,30.17,NNE,26,0.0,0.0,70,0.00,,,0.00,WeatherCatV1.15B25,2013-05-18 05:47:00,
2013-05-18 01:52:00,65.8,55.7,30.17,NNE,30,0.0,3.0,70,0.00,,,0.00,WeatherCatV1.15B25,2013-05-18 05:52:00,
2013-05-18 01:57:00,65.8,56.1,30.17,NNE,22,0.0,1.0,71,0.00,,,0.00,WeatherCatV1.15B25,2013-05-18 05:57:00,
2013-05-18 02:02:00,65.6,56.3,30.17,NNE,22,0.0,0.0,72,0.00,,,0.00,WeatherCatV1.15B25,2013-05-18 06:02:00,
2013-05-18 02:07:00,65.4,56.1,30.17,NNE,22,0.0,0.0,72,0.00,,,0.00,WeatherCatV1.15B25,2013-05-18 06:07:00,
2013-05-18 02:12:00,65.3,56.0,30.17,NNE,22,0.0,0.0,72,0.00,,,0.00,WeatherCatV1.15B25,2013-05-18 06:12:00,
2013-05-18 02:17:00,65.3,56.0,30.16,NE,36,0.0,0.0,72,0.00,,,0.00,WeatherCatV1.15B25,2013-05-18 06:17:00,
2013-05-18 02:22:00,65.3,56.4,30.16,East,94,0.0,3.0,73,0.00,,,0.00,WeatherCatV1.15B25,2013-05-18 06:22:00,
2013-05-18 02:27:00,65.6,56.7,30.16,NE,40,0.0,3.0,73,0.00,,,0.00,WeatherCatV1.15B25,2013-05-18 06:27:00,
2013-05-18 02:32:00,65.7,56.8,30.16,West,275,5.0,5.0,73,0.00,,,0.00,WeatherCatV1.15B25,2013-05-18 06:32:00,
2013-05-18 02:37:00,65.8,56.9,30.16,West,262,0.0,2.0,73,0.00,,,0.00,WeatherCatV1.15B25,2013-05-18 06:37:00,
2013-05-18 02:42:00,65.9,57.0,30.16,NW,321,1.0,1.0,73,0.00,,,0.00,WeatherCatV1.15B25,2013-05-18 06:42:00,
2013-05-18 02:47:00,65.9,57.0,30.15,NNE,14,1.0,3.0,73,0.00,,,0.00,WeatherCatV1.15B25,2013-05-18 06:47:00,
2013-05-18 02:52:00,65.9,57.0,30.15,NNW,348,1.0,4.0,73,0.00,,,0.00,WeatherCatV1.15B25,2013-05-18 06:52:00,
2013-05-18 02:57:00,65.9,57.0,30.15,North,350,2.0,2.0,73,0.00,,,0.00,WeatherCatV1.15B25,2013-05-18 06:57:00,
2013-05-18 03:02:00,65.9,57.4,30.15,WSW,257,0.0,2.0,74,0.00,,,0.00,WeatherCatV1.15B25,2013-05-18 07:02:00,
2013-05-18 03:07:00,65.8,57.3,30.15,NW,306,0.0,2.0,74,0.00,,,0.00,WeatherCatV1.15B25,2013-05-18 07:07:00,
2013-05-18 03:12:00,65.7,57.2,30.15,NNW,348,2.0,3.0,74,0.00,,,0.00,WeatherCatV1.15B25,2013-05-18 07:12:00,
2013-05-18 03:17:00,65.7,57.6,30.15,NW,310,1.0,3.0,75,0.00,,,0.00,WeatherCatV1.15B25,2013-05-18 07:17:00,
2013-05-18 03:22:00,65.6,57.5,30.15,NW,306,0.0,0.0,75,0.00,,,0.00,WeatherCatV1.15B25,2013-05-18 07:22:00,
2013-05-18 03:27:00,65.6,57.5,30.15,NW,311,0.0,2.0,75,0.00,,,0.00,WeatherCatV1.15B25,2013-05-18 07:27:00,
2013-05-18 03:32:00,65.7,57.6,30.14,WNW,300,2.0,2.0,75,0.00,,,0.00,WeatherCatV1.15B25,2013-05-18 07:32:00,
2013-05-18 03:37:00,65.8,57.3,30.15,North,355,0.0,0.0,74,0.00,,,0.00,WeatherCatV1.15B25,2013-05-18 07:37:00,
2013-05-18 03:42:00,65.8,57.6,30.14,North,355,0.0,1.0,75,0.00,,,0.00,WeatherCatV1.15B25,2013-05-18 07:42:00,
2013-05-18 03:47:00,65.8,57.6,30.15,North,355,0.0,0.0,75,0.00,,,0.00,WeatherCatV1.15B25,2013-05-18 07:47:00,
2013-05-18 03:52:00,65.8,57.6,30.15,West,261,2.0,3.0,75,0.00,,,0.00,WeatherCatV1.15B25,2013-05-18 07:52:00,
2013-05-18 03:57:00,65.8,57.6,30.15,NW,304,2.0,2.0,75,0.00,,,0.00,WeatherCatV1.15B25,2013-05-18 07:57:00,
2013-05-18 04:02:00,65.9,57.7,30.15,WSW,248,3.0,4.0,75,0.00,,,0.00,WeatherCatV1.15B25,2013-05-18 08:02:00,
2013-05-18 04:07:00,65.9,57.7,30.15,WSW,256,1.0,2.0,75,0.00,,,0.00,WeatherCatV1.15B25,2013-05-18 08:07:00,
2013-05-18 04:12:00,65.9,57.7,30.15,WSW,244,0.0,1.0,75,0.00,,,0.00,WeatherCatV1.15B25,2013-05-18 08:12:00,
2013-05-18 04:17:00,65.9,57.7,30.15,WSW,245,0.0,1.0,75,0.00,,,0.00,WeatherCatV1.15B25,2013-05-18 08:17:00,
2013-05-18 04:22:00,65.9,57.4,30.15,West,264,0.0,3.0,74,0.00,,,0.00,WeatherCatV1.15B25,2013-05-18 08:22:00,
2013-05-18 04:27:00,66.0,57.8,30.15,West,264,1.0,1.0,75,0.00,,,0.00,WeatherCatV1.15B25,2013-05-18 08:27:00,
2013-05-18 04:32:00,65.9,57.7,30.15,West,264,0.0,0.0,75,0.00,,,0.00,WeatherCatV1.15B25,2013-05-18 08:32:00,
2013-05-18 04:37:00,66.0,57.8,30.15,West,265,0.0,0.0,75,0.00,,,0.00,WeatherCatV1.15B25,2013-05-18 08:37:00,
2013-05-18 04:42:00,66.0,58.2,30.15,West,264,0.0,0.0,76,0.00,,,0.00,WeatherCatV1.15B25,2013-05-18 08:42:00,
2013-05-18 04:47:00,65.9,59.2,30.15,West,264,0.0,0.0,79,0.00,,,0.00,WeatherCatV1.15B25,2013-05-18 08:47:00,
2013-05-18 04:52:00,65.7,60.0,30.15,West,264,0.0,0.0,82,0.00,,,0.00,WeatherCatV1.15B25,2013-05-18 08:52:00,
2013-05-18 04:57:00,65.1,59.8,30.16,WSW,256,0.0,2.0,83,0.00,,,0.00,WeatherCatV1.15B25,2013-05-18 08:57:00,
2013-05-18 05:02:00,64.3,59.4,30.16,East,94,0.0,1.0,84,0.00,,,0.00,WeatherCatV1.15B25,2013-05-18 09:02:00,
2013-05-18 05:07:00,63.5,59.2,30.16,East,82,0.0,0.0,86,0.00,,,0.01,WeatherCatV1.15B25,2013-05-18 09:07:00,
2013-05-18 05:12:00,62.9,59.3,30.16,East,82,0.0,0.0,88,0.13,,,0.02,WeatherCatV1.15B25,2013-05-18 09:12:00,
2013-05-18 05:17:00,62.4,59.1,30.16,East,82,0.0,0.0,89,0.13,,,0.03,WeatherCatV1.15B25,2013-05-18 09:17:00,
2013-05-18 05:22:00,61.9,59.2,30.16,East,82,0.0,0.0,91,0.12,,,0.04,WeatherCatV1.15B25,2013-05-18 09:22:00,
2013-05-18 05:27:00,61.6,58.9,30.16,East,82,0.0,0.0,91,0.10,,,0.04,WeatherCatV1.15B25,2013-05-18 09:27:00,
2013-05-18 05:32:00,61.3,58.6,30.16,East,82,0.0,0.0,91,0.12,,,0.05,WeatherCatV1.15B25,2013-05-18 09:32:00,
2013-05-18 05:37:00,61.2,58.9,30.17,East,82,0.0,0.0,92,0.12,,,0.06,WeatherCatV1.15B25,2013-05-18 09:37:00,
2013-05-18 05:42:00,61.1,59.1,30.17,East,82,0.0,0.0,93,0.09,,,0.07,WeatherCatV1.15B25,2013-05-18 09:42:00,
2013-05-18 05:47:00,61.0,59.0,30.17,East,82,0.0,0.0,93,0.09,,,0.08,WeatherCatV1.15B25,2013-05-18 09:47:00,
2013-05-18 05:52:00,60.9,59.2,30.17,East,82,0.0,0.0,94,0.09,,,0.08,WeatherCatV1.15B25,2013-05-18 09:52:00,
2013-05-18 05:57:00,60.8,59.1,30.17,ENE,76,1.0,1.0,94,0.08,,,0.09,WeatherCatV1.15B25,2013-05-18 09:57:00,
2013-05-18 06:02:00,60.8,59.1,30.16,NE,48,1.0,4.0,94,0.08,,,0.10,WeatherCatV1.15B25,2013-05-18 10:02:00,
2013-05-18 06:07:00,60.8,59.1,30.17,NNW,347,1.0,1.0,94,0.08,,,0.10,WeatherCatV1.15B25,2013-05-18 10:07:00,
2013-05-18 06:12:00,60.8,59.4,30.17,NNE,13,0.0,2.0,95,0.07,,,0.11,WeatherCatV1.15B25,2013-05-18 10:12:00,
2013-05-18 06:17:00,60.8,59.4,30.17,NW,307,0.0,2.0,95,0.07,,,0.11,WeatherCatV1.15B25,2013-05-18 10:17:00,
2013-05-18 06:22:00,60.8,59.4,30.17,NW,307,0.0,0.0,95,0.08,,,0.12,WeatherCatV1.15B25,2013-05-18 10:22:00,
2013-05-18 06:27:00,60.8,59.4,30.17,NW,307,0.0,0.0,95,0.07,,,0.12,WeatherCatV1.15B25,2013-05-18 10:27:00,
2013-05-18 06:32:00,60.9,59.5,30.16,NNW,327,0.0,0.0,95,0.06,,,0.13,WeatherCatV1.15B25,2013-05-18 10:32:00,
2013-05-18 06:37:00,60.9,59.5,30.17,NNW,327,0.0,2.0,95,0.07,,,0.14,WeatherCatV1.15B25,2013-05-18 10:37:00,
2013-05-18 06:42:00,60.9,59.5,30.17,NNW,327,0.0,0.0,95,0.07,,,0.14,WeatherCatV1.15B25,2013-05-18 10:42:00,
2013-05-18 06:47:00,61.0,59.8,30.18,WNW,288,0.0,1.0,96,0.07,,,0.15,WeatherCatV1.15B25,2013-05-18 10:47:00,
2013-05-18 06:52:00,61.0,59.8,30.17,WNW,288,0.0,0.0,96,0.08,,,0.16,WeatherCatV1.15B25,2013-05-18 10:52:00,
2013-05-18 06:57:00,61.0,59.8,30.17,NNE,19,0.0,0.0,96,0.08,,,0.16,WeatherCatV1.15B25,2013-05-18 10:57:00,
2013-05-18 07:02:00,61.0,59.8,30.18,NNE,19,0.0,0.0,96,0.07,,,0.17,WeatherCatV1.15B25,2013-05-18 11:02:00,
2013-05-18 07:07:00,61.0,59.8,30.17,NNE,19,1.0,1.0,96,0.07,,,0.17,WeatherCatV1.15B25,2013-05-18 11:07:00,
2013-05-18 07:12:00,61.0,59.8,30.17,West,277,0.0,2.0,96,0.08,,,0.18,WeatherCatV1.15B25,2013-05-18 11:12:00,
2013-05-18 07:17:00,61.0,59.8,30.18,ENE,59,0.0,1.0,96,0.07,,,0.19,WeatherCatV1.15B25,2013-05-18 11:17:00,
2013-05-18 07:22:00,61.1,59.9,30.18,West,267,2.0,4.0,96,0.07,,,0.19,WeatherCatV1.15B25,2013-05-18 11:22:00,
2013-05-18 07:27:00,61.1,59.9,30.18,South,169,0.0,4.0,96,0.07,,,0.20,WeatherCatV1.15B25,2013-05-18 11:27:00,
2013-05-18 07:32:00,61.1,59.9,30.18,NNE,16,4.0,4.0,96,0.07,,,0.20,WeatherCatV1.15B25,2013-05-18 11:32:00,
2013-05-18 07:37:00,61.1,59.7,30.18,NNW,348,1.0,3.0,95,0.08,,,0.21,WeatherCatV1.15B25,2013-05-18 11:37:00,
2013-05-18 07:42:00,61.2,59.8,30.18,North,5,2.0,2.0,95,0.08,,,0.22,WeatherCatV1.15B25,2013-05-18 11:42:00,
2013-05-18 07:47:00,61.2,59.8,30.18,SW,226,0.0,1.0,95,0.08,,,0.22,WeatherCatV1.15B25,2013-05-18 11:47:00,
2013-05-18 07:52:00,61.2,59.8,30.18,North,351,0.0,3.0,95,0.08,,,0.23,WeatherCatV1.15B25,2013-05-18 11:52:00,
2013-05-18 07:57:00,61.2,59.8,30.18,WSW,253,1.0,3.0,95,0.08,,,0.24,WeatherCatV1.15B25,2013-05-18 11:57:00,
2013-05-18 08:02:00,61.3,59.9,30.19,ENE,63,3.0,4.0,95,0.08,,,0.24,WeatherCatV1.15B25,2013-05-18 12:02:00,
2013-05-18 08:07:00,61.2,59.5,30.19,NW,311,1.0,2.0,94,0.08,,,0.25,WeatherCatV1.15B25,2013-05-18 12:07:00,
2013-05-18 08:12:00,61.2,59.5,30.19,West,269,0.0,3.0,94,0.09,,,0.26,WeatherCatV1.15B25,2013-05-18 12:12:00,
2013-05-18 08:17:00,61.1,59.4,30.19,SE,144,0.0,0.0,94,0.09,,,0.27,WeatherCatV1.15B25,2013-05-18 12:17:00,
2013-05-18 08:22:00,61.0,59.6,30.19,NNE,32,2.0,2.0,95,0.09,,,0.28,WeatherCatV1.15B25,2013-05-18 12:22:00,
2013-05-18 08:27:00,61.0,59.6,30.19,NNW,329,0.0,0.0,95,0.09,,,0.28,WeatherCatV1.15B25,2013-05-18 12:27:00,
2013-05-18 08:32:00,61.0,59.6,30.19,NNW,329,0.0,0.0,95,0.09,,,0.29,WeatherCatV1.15B25,2013-05-18 12:32:00,
2013-05-18 08:37:00,61.0,59.6,30.18,NNW,329,0.0,1.0,95,0.10,,,0.30,WeatherCatV1.15B25,2013-05-18 12:37:00,
2013-05-18 08:42:00,60.9,59.5,30.18,NNW,330,0.0,1.0,95,0.11,,,0.31,WeatherCatV1.15B25,2013-05-18 12:42:00,
2013-05-18 08:47:00,60.9,59.7,30.18,NNW,329,0.0,0.0,96,0.15,,,0.32,WeatherCatV1.15B25,2013-05-18 12:47:00,
2013-05-18 08:52:00,60.8,59.7,30.18,NNW,329,0.0,0.0,96,0.16,,,0.34,WeatherCatV1.15B25,2013-05-18 12:52:00,
2013-05-18 08:57:00,60.9,59.7,30.18,NNW,329,0.0,0.0,96,0.16,,,0.35,WeatherCatV1.15B25,2013-05-18 12:57:00,
2013-05-18 09:02:00,60.9,59.7,30.19,WNW,296,1.0,3.0,96,0.15,,,0.36,WeatherCatV1.15B25,2013-05-18 13:02:00,
2013-05-18 09:07:00,60.9,59.7,30.19,WNW,299,0.0,1.0,96,0.16,,,0.38,WeatherCatV1.15B25,2013-05-18 13:07:00,
2013-05-18 09:12:00,60.9,59.7,30.19,WNW,288,2.0,3.0,96,0.17,,,0.39,WeatherCatV1.15B25,2013-05-18 13:12:00,
2013-05-18 09:17:00,60.9,59.7,30.19,WNW,288,0.0,1.0,96,0.19,,,0.41,WeatherCatV1.15B25,2013-05-18 13:17:00,
2013-05-18 09:22:00,60.9,59.7,30.19,WSW,257,1.0,6.0,96,0.18,,,0.42,WeatherCatV1.15B25,2013-05-18 13:22:00,
2013-05-18 09:27:00,60.9,59.7,30.19,WSW,250,0.0,1.0,96,0.22,,,0.44,WeatherCatV1.15B25,2013-05-18 13:27:00,
2013-05-18 09:32:00,61.0,59.8,30.19,NW,318,2.0,3.0,96,0.23,,,0.46,WeatherCatV1.15B25,2013-05-18 13:32:00,
2013-05-18 09:37:00,61.0,59.8,30.19,NNW,327,2.0,2.0,96,0.22,,,0.48,WeatherCatV1.15B25,2013-05-18 13:37:00,
2013-05-18 09:42:00,61.1,59.9,30.19,North,0,0.0,2.0,96,0.23,,,0.50,WeatherCatV1.15B25,2013-05-18 13:42:00,
2013-05-18 09:47:00,61.1,59.9,30.19,WNW,298,0.0,2.0,96,0.24,,,0.52,WeatherCatV1.15B25,2013-05-18 13:47:00,
2013-05-18 09:52:00,61.2,60.0,30.19,NNW,335,0.0,2.0,96,0.21,,,0.54,WeatherCatV1.15B25,2013-05-18 13:52:00,
2013-05-18 09:57:00,61.2,60.0,30.19,West,279,2.0,5.0,96,0.22,,,0.56,WeatherCatV1.15B25,2013-05-18 13:57:00,
2013-05-18 10:02:00,61.3,60.1,30.19,NE,40,0.0,4.0,96,0.21,,,0.58,WeatherCatV1.15B25,2013-05-18 14:02:00,
2013-05-18 10:07:00,61.4,60.2,30.19,NNE,20,2.0,3.0,96,0.19,,,0.60,WeatherCatV1.15B25,2013-05-18 14:07:00,
2013-05-18 10:12:00,61.4,60.2,30.19,WNW,288,2.0,3.0,96,0.22,,,0.61,WeatherCatV1.15B25,2013-05-18 14:12:00,
2013-05-18 10:17:00,61.5,60.3,30.19,NW,308,0.0,3.0,96,0.22,,,0.63,WeatherCatV1.15B25,2013-05-18 14:17:00,
2013-05-18 10:22:00,61.6,60.4,30.19,WNW,284,0.0,2.0,96,0.23,,,0.65,WeatherCatV1.15B25,2013-05-18 14:22:00,
2013-05-18 10:27:00,61.6,60.4,30.19,WNW,291,0.0,2.0,96,0.18,,,0.66,WeatherCatV1.15B25,2013-05-18 14:27:00,
2013-05-18 10:32:00,61.7,60.5,30.19,West,266,2.0,6.0,96,0.17,,,0.68,WeatherCatV1.15B25,2013-05-18 14:32:00,
2013-05-18 10:37:00,61.8,60.6,30.19,North,5,1.0,3.0,96,0.19,,,0.69,WeatherCatV1.15B25,2013-05-18 14:37:00,
2013-05-18 10:42:00,61.9,60.7,30.19,North,349,0.0,1.0,96,0.21,,,0.71,WeatherCatV1.15B25,2013-05-18 14:42:00,
2013-05-18 10:47:00,62.1,61.2,30.19,WNW,293,1.0,3.0,97,0.20,,,0.72,WeatherCatV1.15B25,2013-05-18 14:47:00,
2013-05-18 10:52:00,62.2,61.0,30.19,NNW,337,2.0,3.0,96,0.16,,,0.74,WeatherCatV1.15B25,2013-05-18 14:52:00,
2013-05-18 10:57:00,62.4,61.2,30.19,WSW,238,4.0,4.0,96,0.18,,,0.75,WeatherCatV1.15B25,2013-05-18 14:57:00,
2013-05-18 11:02:00,62.5,61.3,30.19,NW,320,3.0,4.0,96,0.17,,,0.77,WeatherCatV1.15B25,2013-05-18 15:02:00,
2013-05-18 11:07:00,62.7,61.2,30.19,WSW,244,0.0,2.0,95,0.15,,,0.78,WeatherCatV1.15B25,2013-05-18 15:07:00,
2013-05-18 11:12:00,62.9,61.7,30.19,WNW,284,2.0,2.0,96,0.17,,,0.79,WeatherCatV1.15B25,2013-05-18 15:12:00,
2013-05-18 11:17:00,63.1,61.6,30.19,NE,42,0.0,1.0,95,0.15,,,0.80,WeatherCatV1.15B25,2013-05-18 15:17:00,
2013-05-18 11:22:00,63.2,61.7,30.19,NW,321,0.0,2.0,95,0.15,,,0.82,WeatherCatV1.15B25,2013-05-18 15:22:00,
2013-05-18 11:27:00,63.4,61.9,30.19,West,269,3.0,4.0,95,0.16,,,0.83,WeatherCatV1.15B25,2013-05-18 15:27:00,
2013-05-18 11:32:00,63.4,61.6,30.19,NNW,329,1.0,3.0,94,0.14,,,0.84,WeatherCatV1.15B25,2013-05-18 15:32:00,
2013-05-18 11:37:00,63.5,62.0,30.19,WNW,296,0.0,1.0,95,0.15,,,0.85,WeatherCatV1.15B25,2013-05-18 15:37:00,
2013-05-18 11:42:00,63.5,61.7,30.19,West,266,1.0,3.0,94,0.17,,,0.87,WeatherCatV1.15B25,2013-05-18 15:42:00,
2013-05-18 11:47:00,63.5,62.0,30.19,WSW,243,8.0,8.0,95,0.14,,,0.88,WeatherCatV1.15B25,2013-05-18 15:47:00,
2013-05-18 11:52:00,63.4,61.3,30.19,SW,215,0.0,4.0,93,0.16,,,0.89,WeatherCatV1.15B25,2013-05-18 15:52:00,
2013-05-18 11:57:00,63.4,61.6,30.19,WSW,252,2.0,3.0,94,0.15,,,0.90,WeatherCatV1.15B25,2013-05-18 15:57:00,
2013-05-18 12:02:00,63.6,61.8,30.19,WSW,250,5.0,5.0,94,1.15,,,1.00,WeatherCatV1.15B25,2013-05-18 16:02:00,
2013-05-18 12:07:00,63.9,61.8,30.19,West,269,2.0,5.0,93,0.11,,,1.00,WeatherCatV1.15B25,2013-05-18 16:07:00,
2013-05-18 12:12:00,64.1,62.0,30.19,SW,235,0.0,1.0,93,0.06,,,1.00,WeatherCatV1.15B25,2013-05-18 16:12:00,
2013-05-18 12:17:00,64.2,62.1,30.19,SSE,168,0.0,2.0,93,0.04,,,1.00,WeatherCatV1.15B25,2013-05-18 16:17:00,
2013-05-18 12:22:00,64.2,61.2,30.18,WSW,258,2.0,8.0,90,0.00,,,1.00,WeatherCatV1.15B25,2013-05-18 16:22:00,
2013-05-18 12:27:00,64.1,61.4,30.18,WNW,297,1.0,7.0,91,0.00,,,1.00,WeatherCatV1.15B25,2013-05-18 16:27:00,
2013-05-18 12:32:00,64.1,61.7,30.18,WSW,248,1.0,4.0,92,0.00,,,1.00,WeatherCatV1.15B25,2013-05-18 16:32:00,
2013-05-18 12:37:00,64.0,61.6,30.18,West,271,4.0,5.0,92,0.00,,,1.00,WeatherCatV1.15B25,2013-05-18 16:37:00,
2013-05-18 12:42:00,64.0,61.6,30.18,SW,230,4.0,7.0,92,0.00,,,1.00,WeatherCatV1.15B25,2013-05-18 16:42:00,
2013-05-18 12:47:00,63.9,60.9,30.18,West,279,2.0,3.0,90,0.00,,,1.00,WeatherCatV1.15B25,2013-05-18 16:47:00,
2013-05-18 12:52:00,64.0,61.3,30.18,SW,233,5.0,7.0,91,0.00,,,1.00,WeatherCatV1.15B25,2013-05-18 16:52:00,
2013-05-18 12:57:00,64.0,61.6,30.18,WNW,300,0.0,2.0,92,0.00,,,1.00,WeatherCatV1.15B25,2013-05-18 16:57:00,
2013-05-18 13:02:00,64.0,61.9,30.18,WNW,303,2.0,3.0,93,0.00,,,1.00,WeatherCatV1.15B25,2013-05-18 17:02:00,
2013-05-18 13:07:00,64.1,61.7,30.18,WNW,285,2.0,3.0,92,0.00,,,1.00,WeatherCatV1.15B25,2013-05-18 17:07:00,
2013-05-18 13:12:00,64.0,61.6,30.18,NW,313,0.0,7.0,92,0.00,,,1.00,WeatherCatV1.15B25,2013-05-18 17:12:00,
2013-05-18 13:17:00,63.9,61.2,30.18,WSW,242,4.0,5.0,91,0.00,,,1.00,WeatherCatV1.15B25,2013-05-18 17:17:00,
2013-05-18 13:22:00,63.8,61.1,30.18,WNW,295,7.0,9.0,91,0.00,,,1.00,WeatherCatV1.15B25,2013-05-18 17:22:00,
2013-05-18 13:27:00,63.7,61.0,30.18,SW,231,0.0,4.0,91,0.00,,,1.00,WeatherCatV1.15B25,2013-05-18 17:27:00,
2013-05-18 13:32:00,63.7,61.3,30.18,WSW,240,0.0,4.0,92,0.00,,,1.00,WeatherCatV1.15B25,2013-05-18 17:32:00,
2013-05-18 13:37:00,63.8,61.1,30.18,SW,225,1.0,6.0,91,0.00,,,1.00,WeatherCatV1.15B25,2013-05-18 17:37:00,
2013-05-18 13:42:00,64.1,61.4,30.18,WSW,240,2.0,3.0,91,0.00,,,1.00,WeatherCatV1.15B25,2013-05-18 17:42:00,
2013-05-18 13:47:00,64.5,61.5,30.17,WNW,284,2.0,4.0,90,0.00,,,1.00,WeatherCatV1.15B25,2013-05-18 17:47:00,
2013-05-18 13:52:00,65.0,61.7,30.17,West,274,3.0,7.0,89,0.00,,,1.00,WeatherCatV1.15B25,2013-05-18 17:52:00,
2013-05-18 13:57:00,65.5,61.8,30.17,NW,309,1.0,3.0,88,0.00,,,1.00,WeatherCatV1.15B25,2013-05-18 17:57:00,
2013-05-18 14:02:00,65.8,62.1,30.17,WSW,244,1.0,5.0,88,0.00,,,1.00,WeatherCatV1.15B25,2013-05-18 18:02:00,
2013-05-18 14:07:00,65.9,62.6,30.17,West,259,5.0,6.0,89,0.00,,,1.00,WeatherCatV1.15B25,2013-05-18 18:07:00,
2013-05-18 14:12:00,66.0,61.7,30.17,NW,306,0.0,2.0,86,0.00,,,1.00,WeatherCatV1.15B25,2013-05-18 18:12:00,
2013-05-18 14:17:00,66.1,61.8,30.17,South,183,1.0,6.0,86,0.00,,,1.00,WeatherCatV1.15B25,2013-05-18 18:17:00,
2013-05-18 14:22:00,66.2,61.9,30.17,SW,216,0.0,2.0,86,0.00,,,1.00,WeatherCatV1.15B25,2013-05-18 18:22:00,
2013-05-18 14:27:00,66.3,61.6,30.17,SW,235,1.0,5.0,85,0.00,,,1.00,WeatherCatV1.15B25,2013-05-18 18:27:00,
2013-05-18 14:32:00,66.5,62.2,30.16,WSW,238,2.0,2.0,86,0.00,,,1.00,WeatherCatV1.15B25,2013-05-18 18:32:00,
2013-05-18 14:37:00,66.6,61.9,30.16,NW,326,2.0,3.0,85,0.00,,,1.00,WeatherCatV1.15B25,2013-05-18 18:37:00,
2013-05-18 14:42:00,66.8,62.8,30.16,WNW,286,2.0,3.0,87,0.00,,,1.00,WeatherCatV1.15B25,2013-05-18 18:42:00,
2013-05-18 14:47:00,66.6,61.6,30.17,West,275,1.0,3.0,84,0.00,,,1.00,WeatherCatV1.15B25,2013-05-18 18:47:00,
2013-05-18 14:52:00,66.5,61.5,30.16,West,261,3.0,4.0,84,0.00,,,1.00,WeatherCatV1.15B25,2013-05-18 18:52:00,
2013-05-18 14:57:00,66.2,61.9,30.16,ESE,114,1.0,2.0,86,0.00,,,1.00,WeatherCatV1.15B25,2013-05-18 18:57:00,
2013-05-18 15:02:00,66.0,61.4,30.16,WSW,255,2.0,3.0,85,0.00,,,1.00,WeatherCatV1.15B25,2013-05-18 19:02:00,
2013-05-18 15:07:00,65.9,61.3,30.16,West,271,2.0,6.0,85,0.00,,,1.00,WeatherCatV1.15B25,2013-05-18 19:07:00,
2013-05-18 15:12:00,65.9,61.6,30.16,WSW,249,0.0,2.0,86,0.00,,,1.00,WeatherCatV1.15B25,2013-05-18 19:12:00,
2013-05-18 15:17:00,65.7,61.4,30.16,NW,319,1.0,3.0,86,0.00,,,1.00,WeatherCatV1.15B25,2013-05-18 19:17:00,
2013-05-18 15:22:00,65.6,61.3,30.16,West,262,0.0,3.0,86,0.00,,,1.00,WeatherCatV1.15B25,2013-05-18 19:22:00,
2013-05-18 15:27:00,65.4,61.4,30.16,SE,135,0.0,1.0,87,0.00,,,1.00,WeatherCatV1.15B25,2013-05-18 19:27:00,
2013-05-18 15:32:00,65.3,61.6,30.16,NNW,334,0.0,3.0,88,0.00,,,1.00,WeatherCatV1.15B25,2013-05-18 19:32:00,
2013-05-18 15:37:00,65.2,61.5,30.16,West,260,0.0,5.0,88,0.00,,,1.00,WeatherCatV1.15B25,2013-05-18 19:37:00,
2013-05-18 15:42:00,65.2,61.5,30.16,West,261,0.0,1.0,88,0.00,,,1.00,WeatherCatV1.15B25,2013-05-18 19:42:00,
2013-05-18 15:47:00,65.2,61.5,30.16,SSW,211,0.0,2.0,88,0.00,,,1.00,WeatherCatV1.15B25,2013-05-18 19:47:00,
2013-05-18 15:52:00,65.2,61.9,30.16,WSW,255,1.0,2.0,89,0.00,,,1.00,WeatherCatV1.15B25,2013-05-18 19:52:00,
2013-05-18 15:57:00,65.5,61.8,30.16,WSW,250,0.0,3.0,88,0.00,,,1.00,WeatherCatV1.15B25,2013-05-18 19:57:00,
2013-05-18 16:02:00,65.7,61.7,30.15,West,281,1.0,5.0,87,0.00,,,1.00,WeatherCatV1.15B25,2013-05-18 20:02:00,
2013-05-18 16:07:00,66.1,62.1,30.15,WSW,251,3.0,5.0,87,0.00,,,1.00,WeatherCatV1.15B25,2013-05-18 20:07:00,
2013-05-18 16:12:00,66.4,62.4,30.15,WSW,255,0.0,0.0,87,0.00,,,1.00,WeatherCatV1.15B25,2013-05-18 20:12:00,
2013-05-18 16:17:00,66.7,62.0,30.15,West,265,0.0,3.0,85,0.00,,,1.00,WeatherCatV1.15B25,2013-05-18 20:17:00,
2013-05-18 16:22:00,66.8,62.1,30.15,WSW,250,1.0,5.0,85,0.00,,,1.00,WeatherCatV1.15B25,2013-05-18 20:22:00,
2013-05-18 16:27:00,66.7,62.0,30.15,SW,232,1.0,6.0,85,0.00,,,1.00,WeatherCatV1.15B25,2013-05-18 20:27:00,
2013-05-18 16:32:00,66.6,62.3,30.15,West,281,2.0,2.0,86,0.00,,,1.00,WeatherCatV1.15B25,2013-05-18 20:32:00,
2013-05-18 16:37:00,66.4,62.1,30.15,WSW,257,3.0,3.0,86,0.00,,,1.00,WeatherCatV1.15B25,2013-05-18 20:37:00,
2013-05-18 16:42:00,66.4,62.1,30.15,SSE,155,2.0,6.0,86,0.00,,,1.00,WeatherCatV1.15B25,2013-05-18 20:42:00,
2013-05-18 16:47:00,66.5,62.2,30.15,West,279,1.0,4.0,86,0.00,,,1.00,WeatherCatV1.15B25,2013-05-18 20:47:00,
2013-05-18 16:52:00,66.6,62.6,30.15,SE,128,0.0,2.0,87,0.00,,,1.00,WeatherCatV1.15B25,2013-05-18 20:52:00,
2013-05-18 16:57:00,67.2,62.2,30.14,South,169,0.0,8.0,84,0.00,,,1.00,WeatherCatV1.15B25,2013-05-18 20:57:00,
2013-05-18 17:02:00,67.9,62.2,30.14,SW,217,1.0,5.0,82,0.00,,,1.00,WeatherCatV1.15B25,2013-05-18 21:02:00,
2013-05-18 17:07:00,68.2,61.8,30.14,West,273,3.0,7.0,80,0.00,,,1.00,WeatherCatV1.15B25,2013-05-18 21:07:00,
2013-05-18 17:12:00,68.0,61.9,30.15,SSE,168,0.0,3.0,81,0.00,,,1.00,WeatherCatV1.15B25,2013-05-18 21:12:00,
2013-05-18 17:17:00,67.4,61.7,30.14,West,271,4.0,8.0,82,0.00,,,1.00,WeatherCatV1.15B25,2013-05-18 21:17:00,
2013-05-18 17:22:00,67.2,61.5,30.14,West,280,4.0,6.0,82,0.00,,,1.00,WeatherCatV1.15B25,2013-05-18 21:22:00,
2013-05-18 17:27:00,67.3,61.6,30.14,WSW,238,1.0,5.0,82,0.00,,,1.00,WeatherCatV1.15B25,2013-05-18 21:27:00,
2013-05-18 17:32:00,67.3,61.6,30.14,SW,235,0.0,3.0,82,0.00,,,1.00,WeatherCatV1.15B25,2013-05-18 21:32:00,
2013-05-18 17:37:00,67.2,61.9,30.14,SW,227,6.0,7.0,83,0.00,,,1.00,WeatherCatV1.15B25,2013-05-18 21:37:00,
2013-05-18 17:42:00,67.2,61.9,30.14,NW,308,0.0,4.0,83,0.00,,,1.00,WeatherCatV1.15B25,2013-05-18 21:42:00,
2013-05-18 17:47:00,67.1,61.8,30.14,NNE,19,0.0,3.0,83,0.00,,,1.00,WeatherCatV1.15B25,2013-05-18 21:47:00,
2013-05-18 17:52:00,66.9,61.2,30.14,West,280,1.0,4.0,82,0.00,,,1.00,WeatherCatV1.15B25,2013-05-18 21:52:00,
2013-05-18 17:57:00,66.8,61.1,30.14,WSW,255,5.0,5.0,82,0.00,,,1.00,WeatherCatV1.15B25,2013-05-18 21:57:00,
2013-05-18 18:02:00,66.6,61.3,30.14,SSW,199,2.0,8.0,83,0.00,,,1.00,WeatherCatV1.15B25,2013-05-18 22:02:00,
2013-05-18 18:07:00,66.6,61.6,30.14,West,276,1.0,3.0,84,0.00,,,1.00,WeatherCatV1.15B25,2013-05-18 22:07:00,
2013-05-18 18:12:00,66.5,61.2,30.14,NW,306,0.0,2.0,83,0.00,,,1.00,WeatherCatV1.15B25,2013-05-18 22:12:00,
2013-05-18 18:17:00,66.4,61.1,30.14,WNW,288,0.0,3.0,83,0.00,,,1.00,WeatherCatV1.15B25,2013-05-18 22:17:00,
2013-05-18 18:22:00,66.4,61.1,30.14,NNW,344,2.0,6.0,83,0.00,,,1.00,WeatherCatV1.15B25,2013-05-18 22:22:00,
2013-05-18 18:27:00,66.4,61.1,30.14,SW,215,3.0,5.0,83,0.00,,,1.00,WeatherCatV1.15B25,2013-05-18 22:27:00,
2013-05-18 18:32:00,66.2,61.2,30.15,WSW,256,0.0,4.0,84,0.00,,,1.00,WeatherCatV1.15B25,2013-05-18 22:32:00,
2013-05-18 18:37:00,66.1,61.5,30.14,WSW,255,2.0,3.0,85,0.00,,,1.00,WeatherCatV1.15B25,2013-05-18 22:37:00,
2013-05-18 18:42:00,66.0,61.4,30.14,NNE,25,0.0,0.0,85,0.00,,,1.00,WeatherCatV1.15B25,2013-05-18 22:42:00,
2013-05-18 18:47:00,65.9,61.3,30.14,WNW,288,0.0,5.0,85,0.00,,,1.00,WeatherCatV1.15B25,2013-05-18 22:47:00,
2013-05-18 18:52:00,65.9,61.6,30.15,NE,35,0.0,3.0,86,0.00,,,1.00,WeatherCatV1.15B25,2013-05-18 22:52:00,
2013-05-18 18:57:00,65.8,61.5,30.15,NNE,14,0.0,0.0,86,0.00,,,1.00,WeatherCatV1.15B25,2013-05-18 22:57:00,
2013-05-18 19:02:00,65.7,61.4,30.15,North,355,2.0,3.0,86,0.00,,,1.00,WeatherCatV1.15B25,2013-05-18 23:02:00,
2013-05-18 19:07:00,65.6,61.3,30.15,NW,315,1.0,1.0,86,0.00,,,1.00,WeatherCatV1.15B25,2013-05-18 23:07:00,
2013-05-18 19:12:00,65.5,61.2,30.15,WSW,248,2.0,5.0,86,0.00,,,1.00,WeatherCatV1.15B25,2013-05-18 23:12:00,
2013-05-18 19:17:00,65.3,61.3,30.15,WSW,247,3.0,3.0,87,0.00,,,1.00,WeatherCatV1.15B25,2013-05-18 23:17:00,
2013-05-18 19:22:00,65.3,61.3,30.15,WSW,254,1.0,6.0,87,0.00,,,1.00,WeatherCatV1.15B25,2013-05-18 23:22:00,
2013-05-18 19:27:00,65.2,61.2,30.15,WSW,257,2.0,3.0,87,0.00,,,1.00,WeatherCatV1.15B25,2013-05-18 23:27:00,
2013-05-18 19:32:00,65.2,61.2,30.15,NW,313,2.0,2.0,87,0.00,,,1.00,WeatherCatV1.15B25,2013-05-18 23:32:00,
2013-05-18 19:42:00,65.1,61.5,30.16,West,269,0.0,0.0,88,0.00,,,1.00,WeatherCatV1.15B25,2013-05-18 23:42:00,
2013-05-18 19:47:00,65.0,61.4,30.16,ESE,109,0.0,1.0,88,0.00,,,1.00,WeatherCatV1.15B25,2013-05-18 23:47:00,
2013-05-18 19:52:00,65.0,61.4,30.16,NW,304,1.0,1.0,88,0.00,,,1.00,WeatherCatV1.15B25,2013-05-18 23:52:00,
2013-05-18 19:57:00,65.0,61.4,30.16,WNW,282,0.0,2.0,88,0.00,,,1.00,WeatherCatV1.15B25,2013-05-18 23:57:00,
2013-05-18 20:02:00,64.9,61.3,30.16,South,174,0.0,0.0,88,0.00,,,1.00,WeatherCatV1.15B25,2013-05-19 00:02:00,
2013-05-18 20:07:00,64.8,61.2,30.16,WSW,251,1.0,3.0,88,0.00,,,1.00,WeatherCatV1.15B25,2013-05-19 00:07:00,
2013-05-18 20:12:00,64.8,61.2,30.16,WSW,253,0.0,1.0,88,0.00,,,1.00,WeatherCatV1.15B25,2013-05-19 00:12:00,
2013-05-18 20:17:00,64.7,61.1,30.16,NNW,339,1.0,2.0,88,0.00,,,1.00,WeatherCatV1.15B25,2013-05-19 00:17:00,
2013-05-18 20:22:00,64.7,61.4,30.15,NNW,348,0.0,1.0,89,0.00,,,1.00,WeatherCatV1.15B25,2013-05-19 00:22:00,
2013-05-18 20:27:00,64.6,61.0,30.15,WNW,298,2.0,3.0,88,0.00,,,1.00,WeatherCatV1.15B25,2013-05-19 00:27:00,
2013-05-18 20:32:00,64.6,61.0,30.15,North,355,0.0,1.0,88,0.00,,,1.00,WeatherCatV1.15B25,2013-05-19 00:32:00,
2013-05-18 20:37:00,64.6,61.0,30.16,NW,325,0.0,1.0,88,0.00,,,1.00,WeatherCatV1.15B25,2013-05-19 00:37:00,
2013-05-18 20:42:00,64.5,60.9,30.16,ENE,58,0.0,1.0,88,0.00,,,1.00,WeatherCatV1.15B25,2013-05-19 00:42:00,
2013-05-18 20:47:00,64.5,60.9,30.16,East,91,1.0,2.0,88,0.00,,,1.00,WeatherCatV1.15B25,2013-05-19 00:47:00,
2013-05-18 20:52:00,64.5,60.5,30.16,WNW,290,0.0,1.0,87,0.00,,,1.00,WeatherCatV1.15B25,2013-05-19 00:52:00,
2013-05-18 20:57:00,64.5,60.9,30.16,West,278,3.0,3.0,88,0.00,,,1.00,WeatherCatV1.15B25,2013-05-19 00:57:00,
2013-05-18 21:02:00,64.5,60.9,30.16,WSW,248,2.0,3.0,88,0.00,,,1.00,WeatherCatV1.15B25,2013-05-19 01:02:00,
2013-05-18 21:07:00,64.4,60.8,30.16,WSW,249,0.0,5.0,88,0.00,,,1.00,WeatherCatV1.15B25,2013-05-19 01:07:00,
2013-05-18 21:12:00,64.4,60.8,30.17,WNW,283,0.0,2.0,88,0.00,,,1.00,WeatherCatV1.15B25,2013-05-19 01:12:00,
2013-05-18 21:17:00,64.4,60.8,30.17,NW,318,2.0,2.0,88,0.00,,,1.00,WeatherCatV1.15B25,2013-05-19 01:17:00,
2013-05-18 21:22:00,64.4,60.8,30.17,NW,311,0.0,2.0,88,0.00,,,1.00,WeatherCatV1.15B25,2013-05-19 01:22:00,
2013-05-18 21:27:00,64.3,60.7,30.17,West,265,0.0,1.0,88,0.00,,,1.00,WeatherCatV1.15B25,2013-05-19 01:27:00,
2013-05-18 21:32:00,64.4,60.4,30.17,West,278,0.0,2.0,87,0.00,,,1.00,WeatherCatV1.15B25,2013-05-19 01:32:00,
2013-05-18 21:37:00,64.3,60.7,30.17,NW,317,0.0,2.0,88,0.00,,,1.00,WeatherCatV1.15B25,2013-05-19 01:37:00,
2013-05-18 21:42:00,64.3,60.3,30.17,ENE,74,0.0,3.0,87,0.00,,,1.00,WeatherCatV1.15B25,2013-05-19 01:42:00,
2013-05-18 21:47:00,64.3,60.3,30.17,WSW,250,1.0,1.0,87,0.00,,,1.00,WeatherCatV1.15B25,2013-05-19 01:47:00,
2013-05-18 21:52:00,64.2,60.2,30.17,NW,314,1.0,2.0,87,0.00,,,1.00,WeatherCatV1.15B25,2013-05-19 01:52:00,
2013-05-18 21:57:00,64.2,60.2,30.17,WNW,294,0.0,0.0,87,0.00,,,1.00,WeatherCatV1.15B25,2013-05-19 01:57:00,
2013-05-18 22:02:00,64.2,60.2,30.17,WNW,302,0.0,1.0,87,0.00,,,1.00,WeatherCatV1.15B25,2013-05-19 02:02:00,
2013-05-18 22:07:00,64.1,60.1,30.17,NNW,338,1.0,3.0,87,0.00,,,1.00,WeatherCatV1.15B25,2013-05-19 02:07:00,
2013-05-18 22:12:00,64.1,60.1,30.17,WSW,258,0.0,4.0,87,0.00,,,1.00,WeatherCatV1.15B25,2013-05-19 02:12:00,
2013-05-18 22:17:00,64.0,60.0,30.17,WNW,303,0.0,1.0,87,0.00,,,1.00,WeatherCatV1.15B25,2013-05-19 02:17:00,
2013-05-18 22:22:00,64.0,59.7,30.17,North,355,0.0,3.0,86,0.00,,,1.00,WeatherCatV1.15B25,2013-05-19 02:22:00,
2013-05-18 22:27:00,63.9,59.6,30.17,West,260,0.0,3.0,86,0.00,,,1.00,WeatherCatV1.15B25,2013-05-19 02:27:00,
2013-05-18 22:32:00,63.8,59.5,30.17,WNW,298,1.0,2.0,86,0.00,,,1.00,WeatherCatV1.15B25,2013-05-19 02:32:00,
2013-05-18 22:37:00,63.8,59.9,30.17,NE,46,0.0,0.0,87,0.00,,,1.00,WeatherCatV1.15B25,2013-05-19 02:37:00,
2013-05-18 22:42:00,63.7,59.8,30.17,East,88,0.0,3.0,87,0.00,,,1.00,WeatherCatV1.15B25,2013-05-19 02:42:00,
2013-05-18 22:47:00,63.7,59.4,30.17,NE,34,2.0,6.0,86,0.00,,,1.00,WeatherCatV1.15B25,2013-05-19 02:47:00,
2013-05-18 22:52:00,63.7,59.4,30.17,NNE,17,0.0,4.0,86,0.00,,,1.00,WeatherCatV1.15B25,2013-05-19 02:52:00,
2013-05-18 22:57:00,63.7,59.8,30.16,West,276,0.0,3.0,87,0.00,,,1.00,WeatherCatV1.15B25,2013-05-19 02:57:00,
2013-05-18 23:02:00,63.6,59.7,30.16,NE,41,0.0,4.0,87,0.00,,,1.00,WeatherCatV1.15B25,2013-05-19 03:02:00,
2013-05-18 23:07:00,63.6,59.7,30.16,West,269,3.0,3.0,87,0.00,,,1.00,WeatherCatV1.15B25,2013-05-19 03:07:00,
2013-05-18 23:12:00,63.7,59.4,30.16,WNW,293,1.0,2.0,86,0.00,,,1.00,WeatherCatV1.15B25,2013-05-19 03:12:00,
2013-05-18 23:17:00,63.8,59.5,30.16,SSW,202,1.0,8.0,86,0.00,,,1.00,WeatherCatV1.15B25,2013-05-19 03:17:00,
2013-05-18 23:22:00,63.9,59.6,30.16,NE,46,0.0,4.0,86,0.00,,,1.00,WeatherCatV1.15B25,2013-05-19 03:22:00,
2013-05-18 23:27:00,64.0,59.7,30.16,NE,39,0.0,1.0,86,0.00,,,1.00,WeatherCatV1.15B25,2013-05-19 03:27:00,
2013-05-18 23:32:00,64.0,59.4,30.17,NNE,23,0.0,5.0,85,0.00,,,1.00,WeatherCatV1.15B25,2013-05-19 03:32:00,
2013-05-18 23:37:00,64.0,59.4,30.17,NNE,17,0.0,1.0,85,0.00,,,1.00,WeatherCatV1.15B25,2013-05-19 03:37:00,
2013-05-18 23:42:00,64.1,59.8,30.17,NW,320,1.0,1.0,86,0.00,,,1.00,WeatherCatV1.15B25,2013-05-19 03:42:00,
2013-05-18 23:47:00,64.0,59.4,30.17,NW,310,1.0,1.0,85,0.00,,,1.00,WeatherCatV1.15B25,2013-05-19 03:47:00,
2013-05-18 23:52:00,64.1,59.5,30.17,WNW,294,2.0,2.0,85,0.00,,,1.00,WeatherCatV1.15B25,2013-05-19 03:52:00,
2013-05-18 23:57:00,64.1,59.5,30.17,West,266,0.0,4.0,85,0.00,,,1.00,WeatherCatV1.15B25,2013-05-19 03:57:00,